Location: Pensacola
(30.4142°N, 87.2155°W)
Time: 03:40:36
(UTC-05:00)

Hubble Space Telescope - Pass Details

Date: 08 February 2023
Orbit: 526 x 530 km, 28.5° (Epoch: 01 April)

Event Time Altitude Azimuth Distance (km) Brightness Sun altitude
Rises 19:27:03 0° 214° (SW) 2,637 4.8 -25.4°
Reaches altitude 10° 19:30:06 10° 190° (S) 1,750 3.5 -26.0°
Enters shadow 19:30:13 10° 189° (S) 1,724 3.4 -26.0°
